FLTSATCOM F3

operational
NORAD ID: 11669 Int'l Des: 1980-004 Owner: USNESC/AFSD Country: US
HEOCIRCULAR

About FLTSATCOM F3

Description loading...

Live Position

Loading 3D Globe...

Upcoming Passes

Altitude History

Altitude vs Time

uPlot chart will show altitude changes over time

Two-Line Element Set

1 11669U 80004A 26061.14911172 -.00000309 00000-0 00000+0 0 9998
2 11669 6.3903 307.1043 0021106 246.4229 324.2144 1.00195361168789
Epoch: Mar 2, 2026 • Age: 42 hours

Current Status

Altitude 35895.3 km
Velocity 3.07 km/s
Sub-Earth Point 6.15°N, 56.41°W
Launch Date Jan 18, 1980
Age 46.1 years
Type other

Technical Details

Classification Payload
Mass 942.00 kg
Dry Mass 822.00 kg
Total Mass 1876.00 kg
Length 1.30 m
Diameter 2.40 m
Span 13.20 m
Shape Hex Cyl + Dish + 2 Pan
Manufacturer TRW
Bus Type FLTSATCOM
Phase Status In Orbit
Owner/State USNESC/AFSD/US

Large Constellations

Loading constellations...